[[{"header":{"parameterUnit":"m.s-1","parameterCategory":1,"la1":30.2991,"la2":30.254,"lo1":-89.0895,"lo2":-89.0444,"dy":0.0017,"dx":0.0017,"nx":28,"ny":28,"refTime":"2025-08-27T03:00:00:Z","depth":0,"parameterNumber":2,"parameterNumberName":"U-component_of_WINDS"},"data":[0,0,0,0,0,0,0,0,0,0,0,0,0,0,0,0,0,0,0,0,0,0,0,0,0,0,0,0,0,0,0,0,0,0,0,0,0,0,0,0,0,0,0,0,0,0,0,0,0,0,0,0,0,0,0,0,0,0,0.3468,0.3469,0,0.357,0.3571,0.3572,0.3653,0.3654,0.3655,0.3656,0.376,0.3762,0.3764,0,0,0,0,0,0,0,0,0,0,0,0,0,0.3344,0.3346,0.3468,0.3469,0.3471,0.357,0.3571,0.3573,0.3653,0.3654,0.3655,0.3656,0.3759,0.3762,0.3764,0,0,0,0,0,0,0,0,0,0,0,0,0,0.3417,0.3346,0.3468,0.3523,0.3529,0.357,0.3571,0.3573,0.3653,0.3654,0.3656,0.3657,0.3758,0.3761,0.3764,0.3759,0,0,0.3774,0.3775,0,0,0,0,0,0,0,0,0.3413,0.3421,0.3514,0.3519,0.3526,0.36,0.3566,0.3635,0.3653,0.3606,0.3656,0.3657,0.3706,0.3713,0.373,0.3763,0.3768,0.3774,0.3776,0.3777,0.3778,0,0,0,0,0,0,0,0.3408,0.3418,0.3509,0.3515,0.3522,0.3543,0.3554,0.3579,0.3648,0.361,0.3616,0.3627,0.3709,0.3726,0.3733,0.3769,0.3774,0.3776,0.3778,0.378,0.3803,0.3802,0,0,0,0,0,0,0.3394,0.3413,0.3505,0.3512,0.3471,0.3544,0.3557,0.3575,0.3648,0.366,0.3626,0.3631,0.3721,0.3729,0.3737,0.3734,0.3777,0.378,0.3782,0.3805,0.3803,0.3802,0,0,0,0,0,0,0.3391,0.3401,0.3501,0.3464,0.3478,0.3545,0.3564,0.3577,0.3594,0.366,0.3672,0.3631,0.3722,0.3732,0.3752,0.3739,0.3781,0.3784,0.3806,0.3804,0.3802,0.3729,0,0,0,0,0,0,0.3387,0.34,0.3398,0.3463,0.348,0.3515,0.3564,0.3578,0.3599,0.3606,0.3668,0.3679,0.3724,0.3747,0.3755,0.3744,0.3786,0.3807,0.3805,0.3803,0.3733,0.3725,0.3718,0,0,0,0,0,0.3382,0.3374,0.3398,0.3408,0.3479,0.3514,0.3523,0.3575,0.3597,0.3596,0.3639,0.3677,0.3739,0.3749,0.3758,0.3747,0.3808,0.3806,0.3803,0.3736,0.3726,0.3718,0,0,0,0,0,0,0.3305,0.3383,0.3411,0.3423,0.3461,0.3528,0.3528,0.3563,0.3596,0.3601,0.3664,0.3677,0.369,0.3721,0.3731,0.3746,0.3779,0.3778,0.3724,0.3716,0.3708,0.37,0.3789,0,0,0,0,0,0.3289,0.3311,0.3378,0.3382,0.34,0.346,0.3478,0.3514,0.3556,0.3573,0.3617,0.3656,0.3685,0.3702,0.3732,0.3738,0.3752,0.3735,0.3728,0.3721,0.372,0.3724,0.3717,0.3793,0.3793,0.3793,0,0,0.3257,0.3303,0.3313,0.3368,0.3402,0.3423,0.3473,0.3494,0.351,0.3576,0.3597,0.3631,0.3679,0.3692,0.37,0.3718,0.3702,0.3718,0.3712,0.3714,0.3721,0.3714,0.3707,0.3791,0.3792,0.3792,0,0,0.3209,0.3246,0.3253,0.3286,0.3337,0.3377,0.3379,0.344,0.3465,0.3488,0.3538,0.3558,0.3606,0.3638,0.3661,0.3625,0.3661,0.3633,0.3594,0.3598,0.3592,0.3587,0.3573,0.3567,0.3631,0.3631,0.3631,0,0.3163,0.3196,0.3252,0.3269,0.3292,0.3353,0.3361,0.339,0.3448,0.3462,0.3482,0.3544,0.3581,0.3601,0.3592,0.3609,0.3613,0.3626,0.3588,0.3584,0.358,0.3567,0.3562,0.3627,0.3628,0.3628,0.3628,0,0.3136,0.3158,0.3158,0.3212,0.3235,0.3247,0.3305,0.3322,0.3356,0.3394,0.3416,0.3463,0.3503,0.3511,0.3545,0.3536,0.3546,0.3576,0.3611,0.3568,0.3557,0.3553,0.3622,0.3623,0.3624,0.3625,0,0,0.3041,0.3126,0.3125,0.315,0.3211,0.323,0.3245,0.3284,0.3296,0.3335,0.3348,0.3388,0.3416,0.3441,0.348,0.3483,0.3451,0.3513,0.3515,0.3499,0.3443,0.3419,0.3413,0.3476,0.3476,0.3475,0.3439,0,0.3002,0.3031,0.3082,0.3096,0.3117,0.3176,0.3189,0.3227,0.3264,0.3287,0.3327,0.3353,0.3389,0.3405,0.3411,0.3453,0.344,0.3457,0.3489,0.3489,0.3473,0.3408,0.3382,0.3346,0.3435,0.3435,0.3434,0,0.2959,0.2994,0.3009,0.3068,0.3079,0.3089,0.3129,0.3151,0.3196,0.3222,0.3251,0.3293,0.3312,0.3344,0.3371,0.3381,0.3397,0.342,0.342,0.3424,0.3458,0.3408,0.3336,0.333,0.3428,0.3429,0.3429,0,0.2887,0.2937,0.2953,0.2973,0.3042,0.3048,0.3078,0.3124,0.3144,0.318,0.3193,0.323,0.325,0.3278,0.3329,0.3348,0.3349,0.3386,0.3371,0.3369,0.3367,0.3367,0.3295,0.338,0.338,0.338,0.338,0,0.2837,0.2843,0.2921,0.293,0.294,0.2999,0.3006,0.3041,0.3082,0.3099,0.3153,0.3168,0.3235,0.3258,0.3298,0.3313,0.3322,0.3343,0.3354,0.3338,0.3335,0.3348,0.3352,0.3379,0.3379,0.3379,0.3379,0,0.2757,0.2809,0.283,0.2894,0.2911,0.2914,0.297,0.2981,0.302,0.3041,0.305,0.3112,0.3141,0.3195,0.324,0.3267,0.3274,0.3293,0.3258,0.3264,0.3246,0.3246,0.3179,0.3173,0.3262,0.3261,0.3261,0,0.272,0.2727,0.2792,0.2807,0.2834,0.2859,0.2879,0.2938,0.2958,0.301,0.3014,0.3048,0.3078,0.3123,0.3172,0.3206,0.3226,0.32,0.3231,0.3215,0.3224,0.3222,0.3223,0.3192,0.3191,0.319,0.3189,0,0.265,0.2676,0.2704,0.2741,0.2764,0.2796,0.2831,0.2841,0.2907,0.2927,0.2957,0.2981,0.3027,0.3059,0.3101,0.3132,0.3171,0.3179,0.3177,0.316,0.3139,0.3149,0.3237,0.318,0.3181,0.3182,0.3182,0.3182,0.2591,0.2599,0.2646,0.2675,0.2708,0.2739,0.2752,0.2794,0.282,0.2862,0.2895,0.2923,0.2969,0.3029,0.3057,0.308,0.3098,0.3096,0.3095,0.3093,0.3086,0.3137,0.3088,0.3088,0.3088,0.3089,0.3089,0,0.2522,0.2555,0.2582,0.2629,0.2652,0.2687,0.2728,0.2745,0.2768,0.2807,0.2836,0.2871,0.2903,0.2955,0.2991,0.2999,0.3018,0.3007,0.3006,0.3012,0.3068,0.3065,0.2991,0.2991,0.2991,0.2991,0.2991,0.2991,0.2489,0.2505,0.2536,0.2568,0.2602,0.2629,0.2649,0.2678,0.271,0.2746,0.2773,0.2807,0.2851,0.2891,0.2922,0.2936,0.2946,0.2929,0.2949,0.2999,0.3008,0.3017,0.3015,0.2931,0.2931,0.2891,0.2891,0.289]},{"header":{"parameterUnit":"m.s-1","parameterCategory":1,"la1":30.2991,"la2":30.254,"lo1":-89.0895,"lo2":-89.0444,"dy":0.0017,"dx":0.0017,"nx":28,"ny":28,"refTime":"2025-08-27T03:00:00:Z","depth":0,"parameterNumber":3,"parameterNumberName":"V-component_of_WINDS"},"data":[0,0,0,0,0,0,0,0,0,0,0,0,0,0,0,0,0,0,0,0,0,0,0,0,0,0,0,0,0,0,0,0,0,0,0,0,0,0,0,0,0,0,0,0,0,0,0,0,0,0,0,0,0,0,0,0,0,0,0.7445,0.7444,0,0.7377,0.7377,0.7376,0.7349,0.735,0.735,0.735,0.7278,0.7276,0.7274,0,0,0,0,0,0,0,0,0,0,0,0,0,0.7548,0.7547,0.7445,0.7444,0.7443,0.7378,0.7377,0.7376,0.7349,0.735,0.735,0.735,0.7279,0.7276,0.7274,0,0,0,0,0,0,0,0,0,0,0,0,0,0.7494,0.7546,0.7445,0.7422,0.742,0.7378,0.7377,0.7375,0.7349,0.735,0.735,0.735,0.7279,0.7276,0.7273,0.7248,0,0,0.7264,0.7262,0,0,0,0,0,0,0,0,0.7498,0.7491,0.7427,0.7424,0.7421,0.7372,0.7387,0.7333,0.7349,0.7376,0.735,0.735,0.7309,0.7303,0.729,0.7245,0.7242,0.7263,0.7261,0.726,0.7259,0,0,0,0,0,0,0,0.7501,0.7493,0.7418,0.7426,0.7422,0.7415,0.7407,0.7376,0.7342,0.7374,0.7372,0.7364,0.7307,0.7293,0.7288,0.7241,0.7263,0.7261,0.7259,0.7257,0.717,0.717,0,0,0,0,0,0,0.7509,0.7497,0.742,0.7416,0.7461,0.7412,0.7404,0.7387,0.7342,0.7335,0.7364,0.7363,0.7298,0.7292,0.7285,0.7252,0.726,0.7257,0.7255,0.7171,0.717,0.717,0,0,0,0,0,0,0.7512,0.7503,0.7423,0.7456,0.7445,0.741,0.7392,0.7386,0.7372,0.7335,0.7328,0.7356,0.7298,0.729,0.7258,0.7249,0.7256,0.7253,0.7171,0.717,0.717,0.7186,0,0,0,0,0,0,0.7515,0.7504,0.7495,0.7456,0.7444,0.7397,0.7391,0.7384,0.7367,0.7365,0.7325,0.7319,0.7298,0.7262,0.7254,0.7245,0.725,0.7172,0.7171,0.717,0.7186,0.7186,0.7186,0,0,0,0,0,0.7518,0.7501,0.7494,0.7485,0.7432,0.7397,0.739,0.7367,0.7366,0.7356,0.7332,0.732,0.7252,0.7259,0.725,0.724,0.7172,0.7171,0.717,0.7186,0.7186,0.7186,0,0,0,0,0,0,0.7539,0.7496,0.7487,0.7458,0.7431,0.7393,0.7379,0.7368,0.734,0.7339,0.7311,0.7302,0.7272,0.7253,0.7262,0.7212,0.7211,0.7208,0.7226,0.7226,0.7226,0.7231,0.7248,0,0,0,0,0,0.754,0.7517,0.748,0.7457,0.7445,0.7414,0.7398,0.7383,0.7354,0.7342,0.7316,0.7288,0.726,0.7242,0.7214,0.7183,0.7174,0.7172,0.7172,0.7172,0.7169,0.7151,0.7149,0.7166,0.7166,0.7166,0,0,0.7542,0.7516,0.7503,0.7461,0.7438,0.7414,0.7405,0.7379,0.736,0.7338,0.7306,0.7286,0.7252,0.7221,0.7205,0.7203,0.7163,0.7171,0.7171,0.7168,0.715,0.7148,0.7146,0.7166,0.7166,0.7166,0,0,0.7533,0.7511,0.749,0.7468,0.7434,0.7414,0.7409,0.7372,0.7358,0.7326,0.7308,0.7285,0.7238,0.7214,0.7196,0.7178,0.7165,0.7169,0.7169,0.7151,0.715,0.7148,0.7141,0.7138,0.7167,0.7167,0.7167,0,0.754,0.7503,0.748,0.7455,0.7436,0.7416,0.7393,0.7373,0.7332,0.7319,0.7318,0.7258,0.7234,0.7196,0.7191,0.7178,0.717,0.7173,0.7152,0.715,0.7149,0.7141,0.7138,0.7168,0.7168,0.7168,0.7168,0,0.7512,0.7486,0.7473,0.7434,0.7414,0.7391,0.7363,0.7345,0.7332,0.7311,0.7278,0.7249,0.7214,0.7204,0.719,0.7164,0.7164,0.7158,0.7155,0.7148,0.714,0.7137,0.7169,0.7169,0.7168,0.7168,0,0,0.7514,0.7463,0.7458,0.744,0.7402,0.7381,0.7356,0.7323,0.7308,0.7281,0.7258,0.7218,0.7212,0.7192,0.7175,0.7159,0.7146,0.7155,0.7154,0.7154,0.7114,0.7118,0.7115,0.7138,0.7137,0.7136,0.7116,0,0.7499,0.7454,0.7432,0.7396,0.7372,0.7352,0.733,0.7304,0.7284,0.726,0.7237,0.7209,0.7204,0.7192,0.7175,0.7151,0.7137,0.7152,0.7115,0.7114,0.7123,0.7111,0.7116,0.7098,0.7113,0.7113,0.7112,0,0.7475,0.7449,0.7411,0.7375,0.7363,0.7344,0.7312,0.7289,0.7258,0.7245,0.7222,0.7206,0.7177,0.7178,0.7138,0.7148,0.7132,0.7117,0.7116,0.7111,0.7112,0.7105,0.7092,0.7089,0.7107,0.7108,0.7108,0,0.7479,0.7434,0.7405,0.739,0.7348,0.7334,0.7316,0.7286,0.7267,0.7238,0.7226,0.7194,0.7177,0.7152,0.7127,0.713,0.7089,0.7088,0.7076,0.7077,0.7068,0.7068,0.7051,0.7059,0.7059,0.7059,0.7059,0,0.7465,0.7442,0.7406,0.7388,0.7362,0.7337,0.7311,0.7291,0.7264,0.7241,0.7222,0.72,0.7169,0.7144,0.7124,0.7093,0.7085,0.7073,0.7068,0.7074,0.7076,0.7062,0.7062,0.7058,0.7058,0.7058,0.7058,0,0.7464,0.744,0.7407,0.7369,0.7359,0.7342,0.7309,0.729,0.727,0.7241,0.7233,0.72,0.7169,0.7142,0.71,0.7087,0.7055,0.7049,0.7066,0.7063,0.7052,0.7053,0.7025,0.7019,0.7032,0.7032,0.7032,0,0.7456,0.7438,0.7399,0.7383,0.7365,0.7339,0.732,0.7294,0.7275,0.7238,0.7224,0.7192,0.7164,0.7115,0.7087,0.7055,0.7048,0.704,0.7043,0.7049,0.7046,0.7047,0.7045,0.704,0.704,0.704,0.704,0,0.7444,0.7433,0.7407,0.7376,0.7354,0.7329,0.7303,0.729,0.7259,0.7239,0.7207,0.7186,0.7144,0.7111,0.7076,0.7056,0.7042,0.7039,0.7035,0.704,0.705,0.7044,0.7064,0.704,0.704,0.704,0.704,0.704,0.7439,0.7422,0.7392,0.7363,0.7341,0.7317,0.7297,0.7274,0.7248,0.7212,0.7198,0.7166,0.7134,0.7086,0.7066,0.7039,0.7037,0.703,0.7028,0.7027,0.7028,0.7055,0.7032,0.7032,0.7032,0.7032,0.7032,0,0.7425,0.7405,0.7379,0.7343,0.732,0.731,0.7281,0.7262,0.7234,0.7206,0.718,0.7143,0.7111,0.7081,0.7047,0.7032,0.7024,0.7024,0.7024,0.7019,0.7032,0.7039,0.703,0.703,0.703,0.703,0.703,0.703,0.7415,0.7385,0.737,0.7329,0.7308,0.7277,0.7261,0.7238,0.7215,0.7175,0.7149,0.713,0.7101,0.7065,0.7035,0.7027,0.7015,0.7016,0.7006,0.7018,0.7018,0.7019,0.7025,0.7014,0.7014,0.6995,0.6995,0.6995]}]]